星链-31772 (STARLINK-31772 )

导读

STARLINK-31772是美国SpaceX公司星链(Starlink)项目的卫星,于2024年4月7日发射升空,属于星链近地轨道卫星组网的一部分。星链项目旨在构建覆盖全球的卫星互联网星座,为偏远地区、海洋等网络覆盖空白区域提供高速宽带接入服务,推动全球互联覆盖,该卫星后续将参与星链网络运营,服务全球用户的互联网接入需求。

基本信息
目录编号:
59430
目录名称:
STARLINK-31772
国际标识:
2024-065K
轨道中心:
EARTH
卫星名称:
星链-31772
卫星全名:
星链-31772 (STARLINK-31772 )
卫星状态:
在轨 (已飞行881 天)
发射日期:
2024-04-07 UTC
国别 :
美国 (US)
星等 :
--
轨道信息
数据来源 国际轨道数据
星历时间: 2026-09-05T19:41:36+0800
9小时前
查看轨道信息
半长轴: 6840.874km
偏心率: 0.0001901
轨道倾角: 53.158°
近地点辐角 78.439°
升交点赤经 163.952°
平近点角 281.683°
近地点: 461.436km
远地点: 464.038km
周期: 93.848分钟
每日圈数: 15.343887
详细信息
固有亮度:
5
最大亮度:
1.5
卫星平台:
Starlink v2.0 mini
覆盖范围:
全球
运营商:
太空探索技术公司
运营商所在国:
美国
制造商(研发单位):
太空探索技术公司
制造商所在国:
美国
使用方式:
暂无
卫星简介
星链(Starlink)计划是由太空探索技术公司(SpaceX)提出的一个巨型低轨卫星互联网星座项目,计划在2019年至2024年间在太空搭建由约1.2万颗卫星组成的“星链”网络,其中1584颗将部署在地球上空550千米处的近地轨道,并从2020年开始工作。该卫星仍在工作。
2D轨道图
3D轨道图
轨道高度分析图
轨道倾角分析图
轨道综合分析图
查看轨道综合分析图
交会数据列表
事件ID 空间交会对象 最接近时刻(TCA) 交会距离 交会风险概率(CRP) 交会风险指数(CRI) 操作
CDM_260906-202705-943006-265922
2026-09-06T
20:27:58+0000
1.142 km
极远距离
1.709844E-5 中风险 0.6
CDM_260907-204605-943006-046321
2026-09-07T
20:46:09+0000
2.392 km
极远距离
1.562814E-6 低风险 0.39
CDM_260906-185105-943005-967923
OBJECT C (59679)
2026-09-06T
18:51:05+0000
2.891 km
极远距离
1.396348E-6 低风险 0.38
CDM_260906-231005-233605-943022
2026-09-06T
23:10:49+0000
2.250 km
极远距离
1.224157E-6 低风险 0.37
CDM_260907-074305-082305-943021
2026-09-07T
07:43:03+0000
2.713 km
极远距离
1.134199E-6 低风险 0.36
CDM_260908-001305-943006-606121
2026-09-08T
00:13:26+0000
2.216 km
极远距离
9.703799E-7 极低风险 0.35
CDM_260908-010005-943006-606121
2026-09-08T
01:00:20+0000
2.420 km
极远距离
8.26377E-7 极低风险 0.33
CDM_260907-091505-943006-394321
2026-09-07T
09:15:22+0000
2.386 km
极远距离
8.042439E-7 极低风险 0.33